Latest Weather Observations for Forrest

IDW60801

Issued at 9:35 am WST Thursday 27 November 2014 (issued every 30 minutes, with the page automatically refreshed every 10 minutes)

About weather observations | Map of weather stations | Latest weather observations for WA | Other Formats
Station Details ID: 011052 Name: FORREST Lat: -30.85 Lon: 128.11 Height: 159.0 m
Data from the previous 72 hours. | See also: Recent months at Forrest
Date/Time
WST
Temp
°C
App
Temp
°C
Dew
Point
Rel
Hum
%
Delta-T
°C
Wind Press
QNH
hPa
Press
MSL
hPa
Rain
since 9 am
mm
Dir
 
Spd
km/h
Gust
km/h
Spd
kts
Gust
kts
27/09:30am 27.7 22.7 8.1 29 10.7 ENE 24 35 13 19 1018.6 - 0.0
27/09:00am 26.5 21.2 8.5 32 9.8 ENE 26 37 14 20 1018.9 1018.4 0.0
27/08:30am 24.9 21.2 10.0 39 8.3 E 20 28 11 15 1019.3 - 0.0
27/08:00am 22.6 19.3 11.0 48 6.5 E 19 24 10 13 1019.5 - 0.0
27/07:30am 20.4 17.0 11.3 56 5.0 ENE 20 26 11 14 1019.8 - 0.0
27/07:00am 19.3 15.7 11.8 62 4.2 E 22 28 12 15 1019.8 - 0.0
27/06:30am 18.2 14.7 12.2 68 3.3 E 22 30 12 16 1019.8 - 0.0
27/06:00am 17.3 12.8 12.6 74 2.6 E 28 37 15 20 1019.6 1019.1 0.0
27/05:30am 16.1 12.1 13.0 82 1.7 E 26 32 14 17 1019.5 - 0.0
27/05:00am 14.4 10.9 12.3 87 1.1 E 22 28 12 15 1019.3 - 0.0
27/04:30am 14.0 10.9 12.2 89 1.0 ESE 20 26 11 14 1019.4 - 0.0
27/04:00am 14.3 11.2 12.2 87 1.1 ESE 20 26 11 14 1019.4 - 0.0
27/03:30am 14.3 10.8 12.2 87 1.1 ESE 22 28 12 15 1019.0 - 0.0
27/03:00am 14.5 11.0 12.2 86 1.3 E 22 26 12 14 1019.0 1018.5 0.0
27/02:30am 14.8 10.2 12.3 85 1.4 E 28 37 15 20 1018.6 - 0.0
27/02:00am 15.0 10.4 12.3 84 1.5 E 28 35 15 19 1018.5 - 0.0
27/01:30am 15.2 11.0 12.3 83 1.6 E 26 33 14 18 1018.5 - 0.0
27/01:00am 15.3 10.8 12.6 84 1.5 E 28 33 15 18 1018.5 - 0.0
27/12:30am 15.3 11.5 12.4 83 1.6 E 24 30 13 16 1018.7 - 0.0
27/12:00am 15.5 11.4 12.6 83 1.6 ESE 26 33 14 18 1018.5 1018.0 0.0
 
Date/Time
WST
Temp
°C
App
Temp
°C
Dew
Point
Rel
Hum
%
Delta-T
°C
Wind Press
QNH
hPa
Press
MSL
hPa
Rain
since 9 am
mm
Dir
 
Spd
km/h
Gust
km/h
Spd
kts
Gust
kts
26/11:30pm 15.6 11.4 12.5 82 1.7 ESE 26 33 14 18 1018.7 - 0.0
26/11:00pm 15.8 11.3 12.5 81 1.8 ESE 28 37 15 20 1019.0 - 0.0
26/10:30pm 16.0 11.1 12.6 80 1.9 ESE 30 41 16 22 1019.1 - 0.0
26/10:00pm 16.3 11.0 12.5 78 2.1 ESE 32 43 17 23 1019.5 - 0.0
26/09:30pm 16.7 12.2 12.5 76 2.3 ESE 28 35 15 19 1019.8 - 0.0
26/09:00pm 17.0 12.3 11.9 72 2.8 ESE 28 35 15 19 1019.9 1019.4 0.0
26/08:30pm 17.4 12.6 11.7 69 3.1 ESE 28 39 15 21 1020.0 - 0.0
26/08:00pm 17.9 12.3 11.5 66 3.5 SE 32 43 17 23 1019.8 - 0.0
26/07:30pm 18.7 12.8 11.3 62 4.1 SE 33 43 18 23 1019.7 - 0.0
26/07:00pm 19.5 13.6 11.0 58 4.7 SE 33 41 18 22 1019.5 - 0.0
26/06:30pm 20.4 14.5 11.1 55 5.1 SE 33 43 18 23 1019.0 - 0.0
26/06:00pm 21.8 15.0 10.6 49 6.2 SE 37 46 20 25 1018.7 1018.2 0.0
26/05:30pm 23.2 15.8 9.9 43 7.3 SE 39 52 21 28 1018.3 - 0.0
26/05:00pm 24.0 16.2 9.6 40 7.9 SE 41 54 22 29 1017.6 - 0.0
26/04:30pm 25.1 17.2 9.4 37 8.6 SE 41 50 22 27 1017.3 - 0.0
26/04:00pm 26.4 18.7 8.8 33 9.6 SE 39 54 21 29 1017.1 - 0.0
26/03:30pm 28.3 21.3 8.6 29 10.9 SE 35 50 19 27 1017.2 - 0.0
26/03:22pm 28.2 20.2 7.4 27 11.2 SE 39 50 21 27 1017.1 - 0.0
26/03:00pm 30.1 25.0 4.0 19 13.4 SE 20 30 11 16 1017.4 1017.0 0.0
26/02:30pm 29.6 24.3 2.0 17 13.7 SSE 19 28 10 15 1017.6 - 0.0
26/02:00pm 29.4 26.1 2.6 18 13.4 E 9 24 5 13 1017.8 - 0.0
26/01:30pm 29.0 25.4 3.1 19 13.1 S 11 20 6 11 1018.3 - 0.0
26/01:00pm 28.7 26.2 3.5 20 12.8 NNE 6 11 3 6 1018.7 - 0.0
26/12:30pm 28.6 25.2 4.2 21 12.5 ESE 11 28 6 15 1019.0 - 0.0
26/12:00pm 27.7 24.2 5.3 24 11.6 SE 13 26 7 14 1019.4 1018.9 0.0
26/11:30am 26.5 22.5 4.9 25 11.1 ESE 15 24 8 13 1019.8 - 0.0
26/11:00am 26.0 21.4 6.6 29 10.2 SE 20 26 11 14 1020.3 - 0.0
26/10:30am 25.9 21.7 7.5 31 9.8 ESE 19 26 10 14 1020.7 - 0.0
26/10:00am 24.8 21.2 8.3 35 8.9 E 17 30 9 16 1021.3 - 0.0
26/09:30am 23.1 19.7 9.1 41 7.6 E 17 28 9 15 1021.8 - 0.0
26/09:00am 22.1 17.7 8.9 43 7.1 ESE 22 32 12 17 1022.1 1021.7 0.0
26/08:30am 21.9 18.1 11.0 50 6.1 E 22 32 12 17 1022.3 - 0.0
26/08:00am 20.4 15.2 10.2 52 5.5 E 28 37 15 20 1022.6 - 0.0
26/07:30am 19.4 14.0 10.9 58 4.7 E 30 35 16 19 1022.6 - 0.0
26/07:00am 18.1 12.4 11.2 64 3.8 E 32 39 17 21 1022.9 - 0.0
26/06:30am 16.9 11.0 11.0 68 3.2 E 33 43 18 23 1022.7 - 0.0
26/06:00am 16.0 11.0 11.0 72 2.7 E 28 35 15 19 1022.9 1022.5 0.0
26/05:30am 14.1 10.1 10.5 79 1.9 E 22 28 12 15 1022.5 - 0.0
26/05:00am 12.3 9.4 9.7 84 1.3 ESE 15 19 8 10 1022.2 - 0.0
26/04:30am 10.7 8.0 9.0 89 0.8 SE 13 15 7 8 1022.1 - 0.0
26/04:00am 10.5 8.1 8.6 88 0.9 SSE 11 15 6 8 1022.2 - 0.0
26/03:30am 10.6 8.2 8.7 88 0.9 SE 11 13 6 7 1021.8 - 0.0
26/03:00am 10.7 7.9 8.6 87 1.0 SE 13 15 7 8 1021.5 1021.0 0.0
26/02:30am 11.3 9.0 9.0 86 1.2 ESE 11 13 6 7 1021.7 - 0.0
26/02:00am 12.0 9.8 9.2 83 1.4 ESE 11 15 6 8 1021.5 - 0.0
26/01:30am 12.9 10.5 9.9 82 1.6 E 13 15 7 8 1021.3 - 0.0
26/01:00am 13.4 11.0 10.2 81 1.7 ESE 13 17 7 9 1021.1 - 0.0
26/12:30am 13.8 10.7 10.4 80 1.8 ESE 17 22 9 12 1020.9 - 0.0
26/12:00am 14.2 10.8 10.6 79 1.9 ESE 19 24 10 13 1021.0 1020.5 0.0
 
Date/Time
WST
Temp
°C
App
Temp
°C
Dew
Point
Rel
Hum
%
Delta-T
°C
Wind Press
QNH
hPa
Press
MSL
hPa
Rain
since 9 am
mm
Dir
 
Spd
km/h
Gust
km/h
Spd
kts
Gust
kts
25/11:30pm 14.5 10.6 10.7 78 2.0 ESE 22 28 12 15 1021.2 - 0.0
25/11:00pm 14.8 10.1 10.8 77 2.1 ESE 26 33 14 18 1021.4 - 0.0
25/10:30pm 15.0 10.7 10.8 76 2.2 ESE 24 32 13 17 1021.6 - 0.0
25/10:00pm 15.2 10.4 10.4 73 2.5 ESE 26 35 14 19 1021.6 - 0.0
25/09:30pm 15.5 10.6 10.1 70 2.8 ESE 26 37 14 20 1021.6 - 0.0
25/09:00pm 15.8 10.1 9.7 67 3.2 ESE 30 39 16 21 1021.5 1021.0 0.0
25/08:30pm 16.3 10.5 9.5 64 3.6 ESE 30 39 16 21 1021.7 - 0.0
25/08:00pm 16.9 11.0 9.1 60 4.1 ESE 30 39 16 21 1021.8 - 0.0
25/07:30pm 17.7 10.9 9.1 57 4.5 ESE 35 48 19 26 1021.4 - 0.0
25/07:00pm 18.6 12.1 9.1 54 5.0 SE 33 46 18 25 1021.2 - 0.0
25/06:30pm 19.8 13.3 8.8 49 5.8 SE 33 46 18 25 1021.0 - 0.0
25/06:00pm 21.1 13.8 8.7 45 6.6 SE 37 44 20 24 1020.7 1020.2 0.0
25/05:30pm 22.7 14.9 8.4 40 7.6 SE 39 50 21 27 1020.1 - 0.0
25/05:00pm 24.5 16.9 7.6 34 9.0 SE 37 50 20 27 1019.5 - 0.0
25/04:30pm 26.1 19.2 7.2 30 10.1 ESE 33 43 18 23 1019.4 - 0.0
25/04:00pm 27.2 22.7 2.3 20 12.2 ESE 15 28 8 15 1019.4 - 0.0
25/03:30pm 27.3 22.6 3.1 21 12.1 SE 17 32 9 17 1019.3 - 0.0
25/03:00pm 27.7 23.0 3.4 21 12.2 SE 17 28 9 15 1019.3 1018.8 0.0
25/02:30pm 27.3 22.3 3.7 22 11.9 ESE 19 28 10 15 1019.6 - 0.0
25/02:00pm 27.2 22.0 3.7 22 11.8 SE 20 28 11 15 1019.9 - 0.0
25/01:30pm 26.5 22.3 3.7 23 11.4 E 15 26 8 14 1020.3 - 0.0
25/01:00pm 26.1 21.7 4.6 25 10.9 E 17 28 9 15 1020.6 - 0.0
25/12:30pm 26.3 21.4 5.3 26 10.8 E 20 30 11 16 1021.0 - 0.0
25/12:00pm 24.8 20.0 4.5 27 10.2 ESE 19 26 10 14 1021.5 1021.0 0.0
25/11:30am 24.5 20.0 4.3 27 10.1 ESE 17 26 9 14 1021.8 - 0.0
25/11:00am 23.0 18.6 4.5 30 9.2 E 17 33 9 18 1022.3 - 0.0
25/10:30am 22.6 17.8 4.6 31 8.9 E 19 32 10 17 1022.8 - 0.0
25/10:00am 22.4 15.9 4.9 32 8.7 E 28 32 15 17 1023.1 - 0.0
25/09:30am 20.9 16.2 5.3 36 7.8 E 19 30 10 16 1023.4 - 0.0
25/09:00am 20.6 15.8 5.8 38 7.4 ENE 20 28 11 15 1023.5 1023.1 0.0
25/08:30am 20.4 15.8 6.4 40 7.1 E 20 32 11 17 1023.8 - 0.0
25/08:00am 18.9 13.6 6.7 45 6.2 E 24 33 13 18 1024.0 - 0.0
25/07:30am 18.2 12.5 6.7 47 5.8 ENE 26 35 14 19 1024.3 - 0.0
25/07:00am 17.1 11.7 8.0 55 4.7 E 26 39 14 21 1024.4 - 0.0
25/06:30am 16.3 11.3 8.0 58 4.2 E 24 30 13 16 1024.4 - 0.0
25/06:00am 15.1 10.7 7.4 60 3.8 E 20 26 11 14 1024.2 1023.8 0.0
25/05:30am 13.5 10.5 7.7 68 2.9 E 13 17 7 9 1024.0 - 0.0
25/05:00am 10.9 8.5 6.8 76 2.0 ESE 9 13 5 7 1023.7 - 0.0
25/04:30am 9.4 6.8 6.3 81 1.4 E 9 11 5 6 1023.4 - 0.0
25/04:00am 9.4 6.9 6.5 82 1.4 E 9 11 5 6 1023.1 - 0.0
25/03:30am 9.4 6.4 6.1 80 1.5 SE 11 13 6 7 1022.9 - 0.0
25/03:00am 9.8 6.9 6.5 80 1.5 SE 11 13 6 7 1022.8 1022.4 0.0
25/02:30am 10.1 7.2 6.6 79 1.7 SE 11 13 6 7 1022.7 - 0.0
25/02:00am 10.7 7.9 6.8 77 1.9 SE 11 13 6 7 1022.7 - 0.0
25/01:30am 11.1 8.3 7.0 76 2.0 SE 11 13 6 7 1022.6 - 0.0
25/01:00am 11.3 8.5 6.8 74 2.2 SE 11 15 6 8 1022.7 - 0.0
25/12:30am 11.6 8.7 6.7 72 2.3 SSE 11 13 6 7 1022.7 - 0.0
25/12:00am 12.3 9.9 7.2 71 2.5 SSE 9 11 5 6 1022.8 1022.4 0.0
 
Date/Time
WST
Temp
°C
App
Temp
°C
Dew
Point
Rel
Hum
%
Delta-T
°C
Wind Press
QNH
hPa
Press
MSL
hPa
Rain
since 9 am
mm
Dir
 
Spd
km/h
Gust
km/h
Spd
kts
Gust
kts
24/11:30pm 13.0 10.3 7.2 68 2.8 SE 11 15 6 8 1022.8 - 0.0
24/11:00pm 13.4 10.2 7.0 65 3.1 SE 13 17 7 9 1023.0 - 0.0
24/10:30pm 14.0 10.1 7.1 63 3.4 SE 17 20 9 11 1023.1 - 0.0
24/10:00pm 14.5 10.2 7.1 61 3.7 SE 19 22 10 12 1023.2 - 0.0
24/09:30pm 14.9 10.0 7.0 59 3.9 SE 22 26 12 14 1023.1 - 0.0
24/09:00pm 15.4 10.2 7.2 58 4.1 SE 24 32 13 17 1023.1 1022.7 0.0
24/08:30pm 15.9 9.9 7.1 56 4.4 SE 28 37 15 20 1022.9 - 0.0
24/08:00pm 16.4 10.0 7.1 54 4.6 SE 30 43 16 23 1022.5 - 0.0
24/07:30pm 17.0 10.5 6.5 50 5.2 SE 30 43 16 23 1022.4 - 0.0
24/07:00pm 18.0 11.3 5.6 44 6.1 SE 30 41 16 22 1021.8 - 0.0
24/06:30pm 19.0 12.1 4.7 39 6.9 SE 30 39 16 21 1021.3 - 0.0
24/06:00pm 20.1 13.7 5.0 37 7.4 SSE 28 39 15 21 1020.8 1020.3 0.0
24/05:30pm 21.6 15.6 5.1 34 8.2 SE 26 33 14 18 1020.4 - 0.0
24/05:00pm 22.7 16.7 5.2 32 8.8 SE 26 43 14 23 1020.0 - 0.0
24/04:30pm 23.6 18.3 5.0 30 9.4 SSE 22 35 12 19 1019.5 - 0.0
24/04:00pm 23.9 18.2 4.8 29 9.6 SSE 24 32 13 17 1019.4 - 0.0
24/03:30pm 24.9 19.6 5.2 28 10.0 SE 22 37 12 20 1019.0 - 0.0
24/03:00pm 25.2 20.3 4.9 27 10.3 SSE 20 33 11 18 1019.2 1018.7 0.0
24/02:30pm 25.3 20.9 5.0 27 10.3 SSE 17 32 9 17 1019.2 - 0.0
24/02:00pm 25.2 20.7 4.3 26 10.5 SE 17 33 9 18 1019.4 - 0.0
24/01:30pm 25.1 19.7 4.3 26 10.4 SSE 22 32 12 17 1019.5 - 0.0
24/01:00pm 24.9 19.4 4.1 26 10.4 S 22 35 12 19 1019.6 - 0.0
24/12:30pm 24.7 19.5 5.5 29 9.8 S 22 32 12 17 1019.7 - 0.0
24/12:00pm 24.3 18.8 6.1 31 9.4 S 24 39 13 21 1020.1 1019.6 0.0
24/11:30am 23.6 18.9 6.0 32 9.0 S 20 33 11 18 1020.2 - 0.0
24/11:00am 22.5 18.9 6.7 36 8.2 S 15 28 8 15 1020.4 - 0.0
24/10:30am 23.1 18.7 7.2 36 8.3 SSE 20 30 11 16 1020.7 - 0.0
24/10:00am 21.9 18.0 7.3 39 7.6 S 17 30 9 16 1020.9 - 0.0

Other Formats:

Comma delimited format used in spreadsheet applications
http://www.bom.gov.au/fwo/IDW60801/IDW60801.95646.axf

JavaScript Object Notation format (JSON) in row-major order
http://www.bom.gov.au/fwo/IDW60801/IDW60801.95646.json